Showing default

LEMUR 2 AHMED-ASRAR, 60576

Orbit data source: Space-Track

LEMUR 2 AHMED-ASRAR, 60576 is an American payload satellite in SSO that was launched on Fri, 16 Aug 2024 UTC via an FALCON 9 launch vehicle from the Air Force Western Test Range (AFWTR). Payload-class satellites include a variety of spacecraft equipped with specific instruments for various scientific and technological missions. These include communications satellites like Starlink; space stations such as the ISS; scientific satellites like the Hubble; Earth observation satellites from companies like Planet Labs, Umbra, and HawkEye 360; GPS; miniature CubeSats for education and research; and military/defense satellites.

Loading next visibility...
Identifier
60576, 2024-149DN
Orbit
SSO
Country
Flag of USUS
Related business
Manufacturer
Spire/Glasgow
Mission
Operational Commercial Com/MetRO
Bus & Motor
CUBESAT 3U, Unknown motor
Mass
7.6 kg wet, 7.6 kg dry
Launch date (UTC)
2024-08-16 (2 years ago)
Launch vehicle
FALCON 9
Launch site
Air Force Western Test Range (AFWTR)
Object type
Payload
Rocket body
Debris
Shape & HBR
Box + 2 Pan, 0.5 m
Radar Cross Section
0.063 m², Medium (>0.1 m² and < 1m²)

Expand to show TLE details & history
Last TLE update: 21 hours ago

TLE from 21 hours ago
0 LEMUR 2 AHMED-ASRAR
1 60576U 24149DN  26175.17385892  .00010760  00000-0  61548-3 0  9999
2 60576  97.7003 260.2357 0001179  25.4796 334.6492 15.12845830101626
Epoch: 2026-06-24T04:10Z
TLE epoch observation values (Epoch: 2026-06-24T04:10:21.410Z)
Latitude
-0.00007°
Longitude
-74.68836°
Altitude
529.862 km
Speed
7.598 km/s
True Right ascension
17h 20m 56s
True Declination
0° 00' 00"
Sunlit
Object was in full shadow at epoch
Visualization orbit readout
Latitude
Unknown
Longitude
Unknown
Altitude
Unknown
Speed
Unknown
Apparent Right ascension
Unknown
Apparent Declination
Unknown
Sunlit
N/A
Visualization observer readout
Local Sidereal Time
12:21:56
Azimuth
Unknown
Elevation
Unknown
Doppler factor
Unknown
Orbital elements
Apogee altitude
525.328 km
Perigee altitude
523.701 km
Semi-major axis
6,902.651 km
Eccentricity
0.00012
Inclination
97.7003°
RAAN
260.2357°
Arg. of periapsis
25.4796°
True anomaly
334.64341°
Mean anomaly
334.6492°
Eccentric anomaly
334.64631°
Mean motion
3.78459 °/min
Orbital period
95.12 mins
BSTAR
0.00061548
Loading maneuver chart data...
Computing Atmospheric mass density...
Loading historical data...
Loading historical data...
Loading historical data...
Loading historical data...
Loading historical data...
Loading historical data...
Loading historical data...

Documentation

Showing up to 5 results
|